Preview of NWS' New Version of Forecast
This preview is not operational and should not be used for support decisions.
Latest weather observations around

Seattle, Seattle-Tacoma International Airport (KSEA)

Using International System of Units (Switch to English Units)
Date/ Time (PST) Wind (kph) Vis. (km) Weather Sky Cond. Temp (°C) Rel. Humidity Wind Chill (°C) Heat Index (°C) Pressure Precip. (cm)
Air Dwpt 6 hour Altimeter (hPa) Sea level (hPa) 1 hr 3 hr 6 hr
Max Min
Feb 19 06:53 8 11.27 Light Rain BKN008 OVC015 4 2     86% 2   1023 1024 0 0  
Feb 19 05:53 Calm 9.66 Light Rain and Fog/Mist OVC008 3 2     89%     1023.7 1024.5 0    
Feb 19 05:36 SSE 5 11.27 Light Rain BKN008 OVC013 3 2     89% 2   1023.7   0    
Feb 19 04:53 S 5 11.27 Light Rain BKN010 BKN015 OVC041 4 2     86% 3   1024.4 1025.3 0    
Feb 19 03:53 S 13 16.09 Clear   4 2     86% 1   1024.7 1025.5      
Feb 19 03:38 S 9 16.09 Cloudy SCT010 BKN017 OVC023 4 2     86% 2   1024.7        
Feb 19 02:53 SSE 11 16.09 Cloudy FEW009 BKN014 OVC020 4 2     86% 1   1025.1 1026      
Feb 19 01:53 S 9 16.09 Cloudy SCT008 OVC013 4 2     86% 2   1025.7 1026.6      
Feb 19 01:01 SSW 9 16.09 Cloudy SCT008 OVC013 4 2     86% 2   1025.7        
Feb 19 00:53 SSW 13 16.09 Cloudy BKN010 OVC013 4 2     86% 1   1025.7 1026.7      
Feb 19 00:00 SSE 9 16.09 Cloudy OVC010 4 2     86% 2   1025.7        
Feb 18 23:53 SSE 9 16.09 Cloudy SCT010 OVC019 4 2     86% 2   1025.7 1026.8      
Feb 18 22:53 SE 11 16.09 Cloudy BKN015 OVC019 4 2     83% 2   1026.4 1027.5      
Feb 18 21:53 SSE 11 16.09 Cloudy BKN015 OVC021 4 2     83% 2   1027.1 1027.9 0   0
Feb 18 20:53 SE 8 11.27 Light Rain FEW022 BKN028 OVC060 4 2     83% 3   1026.8 1027.8 0    
Feb 18 20:44 SE 8 8.05 Light Rain BKN025 BKN033 OVC060 4 2     83% 3   1026.8   0    
Feb 18 19:53 ESE 8 16.09 Mostly Cloudy FEW028 BKN060 5 0     70% 3   1027.1 1028      
Feb 18 18:53 E 5 16.09 Mostly Cloudy BKN060 5 1     73% 4   1027.4 1028.4      
Feb 18 17:53 NNE 5 16.09 Mostly Cloudy FEW027 BKN060 6 0     67% 5   1027.4 1028.2      
Feb 18 16:53 Calm 16.09 Mostly Cloudy FEW027 BKN065 6 1     68%     1027.4 1028.3      
Feb 18 15:53 SW 9 16.09 Mostly Cloudy FEW026 SCT040 BKN060 7 1     63% 5   1027.4 1028.5      
Feb 18 15:23 Calm 16.09 Mostly Cloudy SCT025 BKN060 BKN250 7 1     65%     1027.8        
Feb 18 14:53 SSW 11 16.09 Mostly Cloudy BKN021 BKN065 BKN250 7 2     68% 5   1027.8 1028.6      
Feb 18 14:12 S 15 16.09 Mostly Cloudy FEW010 BKN019 BKN032 7 1     67% 4   1028.1        
Feb 18 13:53 S 15 16.09 Mostly Cloudy FEW008 BKN013 BKN032 7 2     70% 4   1028.1 1029.2      
Feb 18 12:53 SSE 8 16.09 Mostly Cloudy FEW009 BKN014 BKN025 6 2     76% 4   1028.8 1029.8      
Feb 18 12:45 5 16.09 Mostly Cloudy FEW009 BKN014 BKN025 6 2     76% 5   1029.1        
Feb 18 11:53 SSE 5 16.09 Cloudy FEW008 BKN017 OVC026 4 2     83% 3   1029.5 1030.4      
Feb 18 10:53 S 9 14.48 Cloudy FEW007 BKN015 OVC024 4 2     83% 2   1029.5 1030.5      
Feb 18 10:48 SSW 9 14.48 Cloudy FEW007 BKN015 OVC024 4 2     87% 2   1029.5        
Feb 18 10:28 S 8 14.48 Cloudy FEW006 BKN013 OVC025 4 2     86% 2   1029.5        
Feb 18 10:02 S 8 11.27 Cloudy FEW005 SCT009 OVC023 3 2     89% 1   1029.5        
Feb 18 09:53 S 8 11.27 Cloudy BKN009 OVC015 3 2     89% 1   1029.5 1030.3     0
Feb 18 09:37 S 5 11.27 Cloudy BKN009 OVC020 3 2     89% 2   1029.5        
Feb 18 08:53 SSE 11 11.27 Cloudy FEW007 BKN011 OVC020 3 1     89% 0   1029.1 1030      
Feb 18 07:53 SE 13 11.27 Mostly Cloudy FEW005 BKN020 BKN050 2 0     85% -1   1028.8 1029.7 0    
Feb 18 06:53 SSE 8 8.05 Light Rain and Fog/Mist FEW004 OVC027 3 1     89% 1   1028.8 1029.6 0 0  
Feb 18 06:32 SSE 9 6.44 Light Rain and Fog/Mist SCT006 OVC027 3 1     85% 0   1028.5   0    
Feb 18 05:53 SE 8 9.66 Fog/Mist BKN006 OVC010 2 1     89% 0   1028.5 1029.4      
Feb 18 05:41 SE 5 9.66 Fog/Mist BKN006 OVC010 3 1     85% 1   1028.1        
Feb 18 04:53 SE 5 11.27 Cloudy SCT006 OVC035 2 1     89% 1   1028.1 1028.9      
Feb 18 03:53 SE 11 16.09 Cloudy SCT007 OVC032 2 0     85% -1   1027.8 1028.6      
Feb 18 02:53 SE 8 9.66 Fog/Mist FEW007 OVC030 2 0     85% 0   1027.8 1028.8      
Feb 18 01:53 ESE 9 11.27 Cloudy OVC034 2 1     89% -1   1027.8 1028.7      
Feb 18 00:53 ESE 9 9.66 Clear   2 1     89% -1   1027.4 1028.3      
Feb 17 23:53 ESE 8 11.27 Cloudy BKN037 OVC043 3 1     89% 1   1027.1 1027.9      
Feb 17 22:53 SSE 5 11.27 Cloudy SCT036 BKN043 OVC110 2 1     92% 1   1026.8 1027.6      
Feb 17 21:53 SE 9 16.09 Partly Cloudy FEW026 SCT110 3 1     89% 0   1026.1 1027.1      
Feb 17 20:53 S 5 16.09 Partly Cloudy SCT026 3 1     85% 1   1025.7 1026.7      
Feb 17 20:40 S 5 16.09 Partly Cloudy SCT026 2 1     89% 1   1025.7        
Feb 17 19:53 SSW 8 16.09 Mostly Cloudy BKN026 4 1     82% 2   1025.4 1026.4      
Feb 17 19:38 S 5 16.09 Mostly Cloudy BKN026 3 1     82% 2   1025.4        
Feb 17 18:53 S 5 16.09 Mostly Cloudy SCT029 BKN110 3 0     79% 2   1025.1 1025.9      
Feb 17 17:53 Calm 16.09 Mostly Cloudy SCT032 BKN110 5 -1     67%     1024.4 1025.3      
Feb 17 16:53 NNE 5 16.09 Mostly Cloudy BKN035 6 0     67% 5   1023.7 1024.7      
Feb 17 15:53 N 5 16.09 Mostly Cloudy BKN031 6 1     70% 5   1023.4 1024.4     0
Feb 17 14:53 N 8 16.09 Cloudy OVC028 6 1     73% 4   1023 1023.9      
Feb 17 13:53 NNE 9 16.09 Cloudy SCT017 BKN027 OVC034 5 1     76% 3   1022.7 1023.5 0    
Feb 17 13:15 NNW 9 8.05 Light Rain SCT017 BKN022 OVC035 5 2     79% 3   1022.4   0    
Feb 17 12:53 N 9 16.09 Cloudy FEW012 SCT027 OVC035 5 1     76% 3   1022.4 1023.2      
Feb 17 11:53 Calm 16.09 Cloudy SCT008 BKN015 OVC023 4 2     83%     1022.4 1023.2      
Feb 17 10:53 Calm 16.09 Cloudy BKN008 BKN013 OVC023 4 2     86%     1021.7 1022.5      
Feb 17 09:53 WNW 5 16.09 Cloudy BKN009 OVC018 4 1     82% 3   1021 1021.8      
Feb 17 09:33 Calm 16.09 Cloudy SCT011 BKN016 OVC021 3 1     82%     1020.7        
Feb 17 08:53 S 5 16.09 Mostly Cloudy BKN011 BKN060 2 0     85% 1   1020.3 1021.1      
Feb 17 07:53 SSE 5 12.87 Cloudy SCT013 BKN040 OVC060 2 0     88% 0   1019.3 1020.1      
Feb 17 06:53 SSE 5 16.09 Cloudy SCT011 SCT016 OVC065 2 0     88% 0   1018.3 1019.3      
Feb 17 06:16 Calm 16.09 Cloudy BKN014 OVC060 2 0     88%     1018.3        
Feb 17 05:53 Calm 16.09 Cloudy SCT014 OVC060 1 0     92%     1018 1018.7      
Feb 17 05:06 SSE 9 16.09 Partly Cloudy SCT014 1 -1     88% -2   1016.9        
Feb 17 04:53 SSE 8 16.09 Mostly Cloudy BKN013 1 -1     88% -1   1016.9 1017.8      
Feb 17 03:53 ESE 8 16.09 Cloudy OVC013 2 0     88% -1   1016.3 1017.1      
Feb 17 02:53 SSE 5 16.09 Mostly Cloudy BKN012 2 0     88% 0   1015.6 1016.6      
Feb 17 01:53 SSE 8 16.09 Mostly Cloudy BKN014 2 0     88% -1   1015.2 1016      
Feb 17 01:32 SSE 8 16.09 Mostly Cloudy BKN013 2 0     88% -1   1014.9        
Feb 17 00:53 S 8 16.09 Partly Cloudy FEW009 SCT017 SCT030 1 0     92% -1   1014.6 1015.5      
Feb 17 00:32 S 8 16.09 Mostly Cloudy FEW009 SCT017 BKN030 2 1     92% -1   1014.2        
Feb 16 23:53 S 9 16.09 Mostly Cloudy FEW013 BKN017 BKN029 2 1     89% -1   1013.9 1014.9      
Feb 16 22:53 S 11 16.09 Mostly Cloudy SCT013 BKN023 BKN029 3 1     89% 0   1013.6 1014.5      
Feb 16 22:12 SSW 15 16.09 Clear   3 2     89% 0   1013.2        
Feb 16 21:53 S 13 16.09 Clear   4 2     86% 1   1013.2 1013.9      
Feb 16 20:53 SSE 8 14.48 Cloudy SCT007 BKN013 OVC017 4 2     86% 2   1012.5 1013.3      
Feb 16 20:31 SW 5 11.27 Cloudy FEW007 BKN015 OVC025 4 2     89% 3   1012.2        
Feb 16 19:53 Calm 12.87 Cloudy BKN023 OVC029 4 2     89%     1011.9 1012.9 0    
Feb 16 18:53 WSW 13 12.87 Light Rain OVC017 4 2     83% 1   1011.5 1012.5 0 0  
Feb 16 17:53 SSE 11 9.66 Light Rain and Fog/Mist BKN017 OVC025 4 3     93% 2   1010.8 1011.8 0    
Feb 16 16:53 Calm 11.27 Light Rain BKN015 OVC020 5 3     89%     1010.8 1011.5 0    
Feb 16 15:53 SSW 11 14.48 Cloudy FEW018 BKN024 OVC041 6 3     79% 4   1010.5 1011.2     0
Feb 16 14:53 SSW 11 16.09 Cloudy SCT014 BKN021 OVC028 7 3     76% 4   1010.5 1011.2      
Feb 16 13:53 S 11 16.09 Cloudy SCT011 SCT016 OVC026 6 3     82% 3   1010.2 1011.2      
Feb 16 12:53 SSW 11 16.09 Cloudy BKN007 BKN019 OVC049 6 3     82% 4   1010.5 1011.3 0 0  
Feb 16 12:23 S 9 4.83 Cloudy BKN005 OVC009 6 4     89% 4   1010.5   0    
Feb 16 11:53 SSE 8 2.41 Light Rain and Fog/Mist BKN005 OVC011 4 3     89% 3   1010.8 1011.6 0    
Feb 16 10:53 S 8 2.41 Light Rain and Fog/Mist OVC006 4 3     89% 3   1010.5 1011.3 0    
Feb 16 09:53 SE 8 2.41 Light Rain and Fog/Mist OVC003 4 3     93% 2   1010.2 1010.9 0   0
Feb 16 09:08 SSE 5 2.41 Light Rain OVC003 4 3     93% 3   1009.8   0    
Feb 16 08:53 SE 8 1.61 Light Rain OVC003 4 2     89% 2   1009.8 1010.6 0    
Feb 16 08:39 SSE 8 1.61 Cloudy BKN002 OVC016 4 2     89% 2   1009.8   0    
Feb 16 07:53 S 5 6.44 Light Rain and Fog/Mist SCT004 SCT010 OVC013 4 3     93% 3   1009.2 1010.1 0    
Feb 16 07:31 Calm 12.87 Cloudy BKN004 OVC010 3 2     89%     1009.2        
Feb 16 07:15 Calm 16.09 Cloudy FEW005 OVC010 4 2     86%     1008.8        
May 15 00:53 WSW 9 16.09 Mostly Clear FEW250 17 11     65%     1012.2 1012.4      
May 14 14:53 NW 13 16.09 Mostly Clear FEW050 FEW250 29 13     37%   28 1012.5 1013      
May 14 05:53 SSW 5 16.09 Mostly Clear FEW250 15 11     78%     1014.6 1014.8      
May 13 17:53 N 8 16.09 Mostly Clear FEW250 29 8     27%   28 1012.5 1012.8      
May 13 01:53 NE 11 16.09 Clear CLR 16 8     62%     1014.9 1015.3      
May 12 18:53 NNE 21 16.09 Mostly Clear FEW030 23 9     41%   23 1015.2 1015.6      
May 12 17:53 N 21 16.09 Mostly Clear FEW030 24 9     39%   24 1015.6 1016.1      
May 12 13:53 NNE 18 16.09 Clear   22 11     48%   22 1018.3 1018.7      
Jun 12 03:53 SW 11 16.09 Partly Cloudy SCT011 11 9     89%     1015.9 1016.5      
Jun 11 13:53 WSW 11 16.09 Partly Cloudy FEW040 SCT170 18 9     54%     1016.6 1017.2      
Jun 11 02:53 S 8 16.09 Mostly Cloudy SCT080 BKN180 12 9     86%     1015.6 1016.1      
Jun 10 15:53 WNW 17 16.09 Partly Cloudy SCT045 SCT200 19 5     40%     1011.2 1011.6      
Jun 07 10:53 W 11 16.09 Mostly Cloudy FEW120 BKN250 19 9     51%     1008.5 1008.9      
Jun 06 05:53 NNE 9 16.09 Partly Cloudy SCT140 SCT250 13 6     62%     1016.3 1016.8      
Jun 05 21:53 N 13 16.09 Mostly Cloudy BKN250 17 6     50%     1018 1018.4